OBJECT BR

基本信息
目录编号:
62672
目录名称:
OBJECT BR
国际标识:
2025-009BR
轨道中心:
EARTH
物体状态:
在轨
发射日期:
2025-01-14 UTC
国别:
(TBD)
轨道信息
数据来源: 国际轨道数据
星历时间: 2026-09-04T23:38:00+0800
半长轴: 6873.504km
偏心率: 0.0005974
轨道倾角: 97.390°
近地点辐角: 65.426°
升交点赤经: 325.550°
平近点角: 294.760°
近地点: 491.26km
远地点: 499.474km
周期: 94.521分钟
每日圈数: 15.234757
详细信息
发射场:
AFWTR
轨道高度:
LEO
数据来源:
AOE Working Group
参考系:
TEME
时间系统:
UTC
历元类型:
SGP4
2D轨道图
3D轨道图
轨道高度分析图
轨道倾角分析图
轨道综合分析图
查看轨道综合分析图